Terug naar catalogus

BREEZE-M R/B

ActiefHEO
NORAD 28925·ROCKET BODY·🇷🇺 Russia

Gelanceerd Dec 29, 2005 vanaf Baikonur Cosmodrome

Loading…

Volgende Passages (komende 24 uur)

TLE

VersSource: Space-Track

Epoch: Sep 14, 2026, 12:42 UTC

1 28925U 05052B   26257.52920205 -.00000273  00000-0  00000+0 0  9997
2 28925  19.6015 309.4578 5367819 227.3345  70.8277  1.94152239146818

Volg BREEZE-M R/B in realtime met AllMySat

Download on the App Store